Location: Ferchesar
(52.6477°N, 12.4298°E)
Time: 17:46:48
(UTC+01:00)

A-11 Canister half - Visible Passes

Search period start: 03 December 2022 00:00
Search period end: 13 December 2022 00:00
Orbit: 1515 x 1684 km, 47.2° (Epoch: 02 December)

Date Brightness Start Highest point End Pass type
(mag) Time Alt. Az. Time Alt. Az. Time Alt. Az.
03 Dec 10.3 03:19:32 26° SSE 03:21:25 28° SE 03:29:17 10° E visible
03 Dec 9.6 05:17:46 19° SW 05:24:52 55° SSE 05:34:33 10° E visible
03 Dec 9.6 07:19:27 10° W 07:29:12 65° S 07:39:12 10° ESE visible
04 Dec 10.3 02:58:17 26° SE 02:58:35 26° SE 03:06:15 10° E visible
04 Dec 9.6 04:56:30 27° SW 05:01:57 53° SSE 05:11:35 10° E visible
04 Dec 9.5 06:56:32 10° W 07:06:16 65° S 07:16:16 10° ESE visible
05 Dec 10.5 02:36:56 24° SE 02:36:56 24° SE 02:43:11 10° E visible
05 Dec 9.5 04:35:09 35° SSW 04:39:03 52° SSE 04:48:37 10° E visible
05 Dec 9.4 06:33:38 10° W 06:43:20 65° S 06:53:18 10° ESE visible
06 Dec 10.7 02:15:32 21° ESE 02:15:32 21° ESE 02:20:06 10° E visible
06 Dec 9.5 04:13:45 43° SSW 04:16:09 50° SSE 04:25:39 10° E visible
06 Dec 9.4 06:11:58 15° WSW 06:20:24 65° S 06:30:22 10° ESE visible
07 Dec 10.9 01:54:04 17° ESE 01:54:04 17° ESE 01:57:00 10° E visible
07 Dec 9.4 03:52:16 48° S 03:53:16 49° SSE 04:02:41 10° E visible
07 Dec 9.3 05:50:29 21° WSW 05:57:27 65° S 06:07:24 10° E visible
08 Dec 11.1 01:32:33 13° E 01:32:33 13° E 01:33:53 10° E visible
08 Dec 9.5 03:30:46 47° SSE 03:30:46 47° SSE 03:39:42 10° E visible
08 Dec 9.3 05:28:58 29° WSW 05:34:32 65° S 05:44:27 10° E visible
09 Dec 9.8 03:09:12 42° SE 03:09:12 42° SE 03:16:44 10° E visible
09 Dec 9.2 05:07:24 38° WSW 05:11:36 65° S 05:21:30 10° E visible
09 Dec 9.6 07:06:28 10° W 07:15:57 55° SSW 07:25:42 10° SE visible
10 Dec 10.0 02:47:37 36° ESE 02:47:37 36° ESE 02:53:45 10° E visible
10 Dec 9.2 04:45:49 48° SW 04:48:41 64° S 04:58:32 10° E visible
10 Dec 9.5 06:44:01 12° W 06:53:02 56° SSW 07:02:48 10° SE visible
11 Dec 10.3 02:26:01 29° ESE 02:26:01 29° ESE 02:30:47 10° E visible
11 Dec 9.1 04:24:13 58° SSW 04:25:45 64° S 04:35:35 10° E visible
11 Dec 9.5 06:22:25 17° W 06:30:07 57° SSW 06:39:54 10° ESE visible
12 Dec 10.6 02:04:23 23° E 02:04:23 23° E 02:07:49 10° E visible
12 Dec 9.1 04:02:35 63° S 04:02:50 63° S 04:12:38 10° E visible
12 Dec 9.4 06:00:47 23° W 06:07:12 58° SSW 06:16:59 10° ESE visible
